Regional Weather Roundup
Issued by NWS

Home | Current Version | Previous Version | Graphics & Text | Print | Product List | Glossary On
Versions: 1 2 3 4 5 6 7 8 9 10 11 12 13 14 15 16 17 18 19 20 21 22 23 24 25 26 27 28 29 30 31 32 33 34 35 36 37 38 39 40 41 42 43 44 45 46 47 48 49 50
335
ASUS43 KMPX 030310
RWRMN
WEATHER ROUNDUP FOR MINNESOTA
NATIONAL WEATHER SERVICE TWIN CITIES/CHANHASSEN MN
1000 PM CDT MON MAY 02 2016


NOTE: "FAIR" INDICATES FEW OR NO CLOUDS BELOW 12,000 FEET WITH NO
SIGNIFICANT WEATHER AND/OR OBSTRUCTIONS TO VISIBILITY. N/A MEANS
CURRENT SKY AND/OR WEATHER CONDITIONS ARE NOT AVAILABLE.

MNZ060>063-068>070-030400-
   Twin Cities Metro

CITY           SKY/WX    TMP DP  RH WIND       PRES   REMARKS
TWIN CITIES    CLEAR     59  30  33 CALM      30.01R
ST PAUL        CLEAR     55  37  50 CALM      30.01S
CRYSTAL        CLEAR     53  34  48 SW3       29.99S
BLAINE         CLEAR     52  37  58 S3        30.00S
EDEN PRAIRIE   CLEAR     57  32  38 CALM      30.00S
SOUTH ST PAUL  CLEAR     55  36  48 CALM      30.00S
LAKE ELMO      FAIR      50  39  66 CALM      30.01S
$$
MNZ001>005-007-008-013>017-022>024-027-028-030400-
   Northwest Minnesota

CITY           SKY/WX    TMP DP  RH WIND       PRES   REMARKS
BEMIDJI        CLEAR     51  28  41 CALM      29.95S
HALLOCK        CLOUDY    57  25  28 SW3       29.92F
ROSEAU         CLOUDY    63  32  31 W3        29.92S
WARROAD        CLOUDY    57  36  44 SW6       29.92S
THIEF RVR FALL CLOUDY    55  27  33 CALM      29.95S
CROOKSTON      CLEAR     57  32  38 W12       29.96R
FOSSTON        CLEAR     48  27  43 CALM      29.96S
DETROIT LAKES  CLEAR     59  30  33 SW5       29.99S
MOORHEAD       CLEAR     61  36  39 W10       29.98S
PARK RAPIDS    CLEAR     53  30  41 SW8       29.96S
MAHNOMEN       FAIR      54  28  36 W9        29.96S
$$
MNZ006-009>011-018-025>026-030400-
   North Central Minnesota

CITY           SKY/WX    TMP DP  RH WIND       PRES   REMARKS
BAUDETTE       PTCLDY    51  36  56 S6        29.92F
FLAG ISLAND    PTCLDY    52  45  76 CALM      29.89F
INTL FALLS     CLOUDY    47  34  60 CALM      29.92F
WASKISH        CLEAR     55  41  58 W3        29.94S
BIG FORK       PTCLDY    48  30  49 CALM      29.94F
LONGVILLE      CLEAR     46  34  61 CALM      29.96F
GRAND RAPIDS   CLEAR     46  27  46 S5        29.97S
CRANE LAKE     PTCLDY    41  34  75 CALM      29.94F
ORR            CLEAR     54  23  30 CALM      29.91F
COOK           CLEAR     48  32  53 CALM      29.94S
WALKER         FAIR      53  32  45 S3        29.95F
$$
MNZ012-019>021-037-030400-
   Northeast Minnesota

CITY           SKY/WX    TMP DP  RH WIND       PRES   REMARKS
DULUTH         PTCLDY    50  31  48 SE3       29.97S
ELY            CLEAR     52  30  43 S8        29.93F
HIBBING        CLEAR     41  32  70 S5        29.94F
EVELETH        CLEAR     45  32  61 CALM      29.96F
DULUTH HARBOR  CLEAR     39  36  87 CALM      29.99S
TWO HARBORS    PTCLDY    45  36  70 CALM      29.95F
SILVER BAY     CLEAR     41  32  70 CALM      29.95F
GRAND MARAIS     N/A     39  33  79 CALM      29.96F
G MARAIS ARPRT CLEAR     37  28  70 CALM      29.97F
$$
MNZ029>031-032-039>041-046>048-054>057-064-030400-
   West Central Minnesota

CITY           SKY/WX    TMP DP  RH WIND       PRES   REMARKS
FERGUS FALLS   CLEAR     57  30  35 S3        29.96R
WHEATON        CLEAR     55  36  47 CALM      30.00S
MORRIS         CLEAR     57  34  41 SW6       29.98F
ALEXANDRIA     CLEAR     54  29  38 SW5       30.00S
ELBOW LAKE     FAIR      54  32  43 S5        29.99S
WADENA         CLEAR     52  30  43 CALM      29.98S
GLENWOOD       CLEAR     54  30  40 S5        30.00S
APPLETON       CLEAR     54  36  50 CALM      30.00R
BENSON         CLEAR     52  34  50 CALM      30.00S
ORTONVILLE     CLEAR     55  30  38 S3        29.99F
MADISON        PTCLDY    57  34  41 SW3       30.00F
WILLMAR        CLOUDY    59  36  41 CALM      30.01S
$$
MNZ033>034-036-042>043-049>051-058-059-030400-
   Central Minnesota

CITY           SKY/WX    TMP DP  RH WIND       PRES   REMARKS
ST CLOUD       CLEAR     52  34  50 CALM      29.99S
SAUK CENTRE    FAIR      51  34  51 CALM      29.99S
PAYNESVILLE    CLEAR     53  34  48 S5        30.00S
AITKIN         CLEAR     48  34  57 CALM      29.96F
PINE RIVER     CLEAR     48  36  61 CALM      30.00S
BRAINERD       CLEAR     53  32  44 CALM      29.98S
STAPLES        CLEAR     48  32  53 SW3       29.98S
LONG PRAIRIE   FAIR      46  37  71 CALM      30.00R
LITTLE FALLS   CLEAR     50  32  50 CALM      29.99S
LITCHFIELD     CLEAR     55  43  62 CALM      30.01S
BUFFALO        CLEAR     52  37  56 CALM      30.01S
MAPLE LAKE     CLEAR     54  41  60 CALM      30.01S
HUTCHINSON     CLOUDY    57  38  48 S3        30.02S
$$
MNZ037-044-045-052-053-030400-
   East Central Minnesota

CITY           SKY/WX    TMP DP  RH WIND       PRES   REMARKS
PRINCETON        N/A     48  36  61 CALM      30.00S
MORA           CLEAR     45  36  70 CALM      30.01R
CAMBRIDGE      CLEAR     54  37  54 CALM      29.98S
RUSH CITY      MOCLDY    48  34  57 CALM      29.99S
MOOSE LAKE     PTCLDY    50  32  50 CALM      29.96S
HINCKLEY       FAIR      46  37  71 CALM      29.99R
CLOQUET        CLEAR     48  30  49 CALM      29.97S
MCGREGOR       CLEAR     52  32  46 S3        29.98S
$$
MNZ071>073-080-081-089-090-097-098-030400-
   Southwest Minnesota

CITY           SKY/WX    TMP DP  RH WIND       PRES   REMARKS
MONTEVIDEO     CLOUDY    57  28  33 CALM      30.02S
GRANITE FALLS  CLOUDY    60  37  40 S5        30.02S
CANBY          CLOUDY    53  42  65 SW5       30.02R
MARSHALL       PTCLDY    55  37  50 SW9       30.02R
REDWOOD FALLS  MOCLDY    54  36  50 S8        30.01R
OLIVIA         CLOUDY    55  36  47 S6        30.00S
PIPESTONE      CLEAR     52  41  66 SW3       30.03R
WINDOM         CLEAR     54  39  58 CALM      30.03R
WORTHINGTON    CLEAR     53  41  63 S5        30.04R
JACKSON        CLEAR     54  37  54 S5        30.04R
TRACY          CLOUDY    54  42  63 SW6       30.02R
SLAYTON        CLEAR     50  40  67 SW3       30.04R
$$
MNZ065>067-074>077-082>085-091>093-030400-
   South Central Minnesota

CITY           SKY/WX    TMP DP  RH WIND       PRES   REMARKS
MANKATO        CLEAR     57  36  44 SW7       30.03R
NEW ULM        CLEAR     55  37  50 SW6       30.02S
ST JAMES       CLEAR     50  37  62 S6        30.04R
FAIRMONT       CLEAR     54  39  58 S3        30.03R
GLENCOE        MOCLDY    56  41  57 CALM      30.01R
FARIBAULT      PTCLDY    50  39  66 CALM      30.03R
OWATONNA       PTCLDY    52  37  58 S5        30.03R
WASECA         PTCLDY    52  37  58 CALM      30.04S
ALBERT LEA     MOCLDY    52  45  76 CALM      30.04R
$$
MNZ078>079-086>088-094>096-030400-
   Southeast Minnesota

CITY           SKY/WX    TMP DP  RH WIND       PRES   REMARKS
ROCHESTER      CLOUDY    52  43  71 SW7       30.04R
RED WING       PTCLDY    52  39  62 N3        30.00S
STANTON        PTCLDY    49  38  65 S3        30.00S
DODGE CENTER   MOCLDY    50  39  66 SW5       30.03S
WINONA         CLOUDY    54  43  66 CALM      30.02S
AUSTIN         PTCLDY    52  39  62 CALM      30.03S
PRESTON        PTCLDY    53  37  56 SW5       30.04S
$$
ABBREVIATIONS USED IN REMARKS
   TC - TEMPERATURES IN CELSIUS
  WCI - WIND CHILL INDEX
   HX - HEAT INDEX
  VSB - VISIBILITY
$$




USA.gov is the U.S. government's official web portal to all federal, state and local government web resources and services.